Погода в Хаапсалу

Эстония     58°56′29″N   23°32′28″E
темп.,
°C
ветер,
м/с
пор.,
м/с
влажн.,
%
обл.,
%
осадки,
мм/ч
давл.,
гПа
погр.,
м
13 апреля, вт
вт1300:00+4зюз3595100 0.6 1018119
03:00+4зюз3689100 0.7 1018174
06:00+3зюз4687100 0.0 1019163
09:00+4зюз358398 0.0 1020190
12:00+4зюз3571100 0.0 1021338
15:00+5зюз3464100 0.0 1022412
18:00+4зюз3563100 0.0 1021302
21:00+3юз3470100 0.0 102268
14 апреля, ср
ср1400:00+3юз3482100 0.0 102189
03:00+2з338786 0.0 102151
06:00+2з22875 0.0 102110
09:00+3зсз237937 0.0 1022152
12:00+4сз45755 0.0 1023419
15:00+4ссз567221 0.0 1024479
18:00+3ссз5771100 0.0 1024369
21:00+2ссз477994 0.0 1026191
15 апреля, чт
чт1500:00+2с3681100 0.0 1026131
03:00+3св5975100 0.0 1027183
06:00+2св497873 0.0 1027179
09:00+4св597133 0.0 1029314
12:00+6ссв695946 0.0 1029470
15:00+6ссв811485 0.0 1029516
18:00+7св610465 0.0 1028431
21:00
16 апреля, пт
пт1600:00+3св410642 0.0 1029206
03:00+2св511715 0.0 1029219
06:00+2св513705 0.0 1029282
09:00+4св6116596 0.0 1029330
12:00+7св694521 0.0 1029402
15:00+9св7104181 0.0 1028481
18:00+8св6104772 0.0 1029373
21:00+6всв510585 0.0 1031262
17 апреля, сб
сб1700:00+5всв5958100 0.0 1030183
03:00+4всв4970100 0.0 1031151
06:00+3всв597578 0.0 1032170
09:00+6всв586756 0.0 1032194
12:00+9всв58499 0.0 1032403
15:00+11в47445 0.0 1032507
18:00+11в46465 0.0 1031490
21:00+8в346219 0.0 103354